Wind_Speed
14 15 15 15 15 18 24 29 30 23 19 12 11 14 19 21 23 23 29 36 30 38 36 40 46 49 50 53 54 55 57 58
18 19 21 18 18 19 32 23 20 8 15 13 14 16 20 22 24 31 28 35 37 39 41 43 47 49 51 54 56 57 56 55
23 24 23 17 10 12 12 11 13 13 11 11 12 15 20 24 26 29 30 32 35 37 40 44 47 50 53 56 56 57 59 60
7 7 8 11 9 8 8 10 12 13 12 12 14 15 18 24 28 30 32 36 40 45 49 52 54 55 57 58 57 54 54 47
4 5 10 3 5 9 11 8 12 12 14 17 21 25 29 35 37 39 41 45 48 51 52 54 54 55 56 56 52 48 45 45
5 7 6 3 11 15 13 11 13 20 23 28 31 33 38 39 39 42 44 47 47 48 51 52 52 52 51 48 48 49 50 51
11 14 4 10 20 23 17 19 20 24 26 31 34 39 39 39 41 44 45 45 45 48 48 48 48 49 50 50 47 44 43 45
8 8 11 21 21 19 22 22 22 25 29 34 38 39 39 40 40 41 42 44 45 46 47 50 51 51 51 47 44 43 45 43
13 22 27 17 22 24 25 25 26 27 33 38 41 40 40 42 44 46 46 48 50 50 51 53 53 53 50 46 47 36 33 32
23 27 19 21 27 27 26 28 27 31 37 45 44 44 45 46 46 47 47 48 50 51 53 53 51 47 42 44 38 28 31 34
24 21 23 26 29 29 29 31 30 35 41 44 42 43 44 45 45 47 47 48 50 52 49 47 44 42 39 34 34 34 29 33
21 22 25 28 30 32 33 29 34 39 40 39 41 42 43 46 47 47 49 50 48 47 47 46 43 40 31 38 35 30 32 36
23 24 26 28 32 32 29 34 40 37 38 40 41 43 45 47 49 51 50 49 46 46 43 39 36 31 25 27 30 32 36 38
25 26 26 28 30 33 38 40 34 37 39 40 42 44 46 48 49 48 47 46 45 41 37 36 30 28 32 29 34 36 38 40
26 27 28 30 33 38 40 36 38 38 40 42 45 47 48 48 47 46 46 44 41 38 35 30 28 25 27 32 34 37 37 36
28 28 29 32 38 37 36 36 37 40 42 45 47 48 48 47 47 46 45 42 39 35 33 28 24 27 30 31 34 33 34 35
28 28 31 37 34 33 35 37 39 41 44 46 47 48 47 47 48 46 44 39 36 33 28 26 28 28 30 30 31 32 34 37
28 32 35 34 33 36 37 38 40 41 43 45 46 47 47 47 46 44 41 37 34 30 27 25 27 27 27 29 29 31 34 36
32 35 35 35 35 36 35 38 39 41 43 45 45 45 45 44 42 40 37 34 31 28 25 25 24 25 27 28 30 32 34 36
Wind_Direction
245 248 246 263 271 268 266 269 266 276 308 325 323 300 285 282 286 295 305 296 300 307 299 303 300 299 299 299 298 299 300 301
259 259 260 263 272 272 265 283 309 323 336 334 310 297 292 289 295 296 297 296 301 298 297 295 294 294 293 292 294 296 295 298
270 269 268 274 273 284 294 290 307 319 328 311 299 284 284 290 296 301 303 301 297 297 296 294 293 293 297 298 301 300 298 302
296 274 260 263 291 298 300 305 323 334 334 316 307 308 305 307 310 308 308 307 307 305 305 306 306 306 305 304 303 304 306 302
232 282 289 289 329 349 353 2 356 337 321 318 320 323 320 320 318 317 314 311 311 310 309 308 306 305 306 306 305 304 302 301
231 266 273 29 16 351 332 313 320 336 336 339 334 327 323 318 316 313 312 311 310 306 306 306 306 305 305 306 305 305 304 301
275 266 287 319 322 305 304 308 313 332 336 330 327 324 321 317 314 311 310 309 307 305 305 304 303 302 304 305 306 307 305 308
262 290 317 321 300 302 307 308 320 327 325 319 319 318 315 313 311 310 307 305 304 303 303 305 308 310 311 311 304 303 303 306
290 305 300 292 301 306 306 314 320 316 315 320 318 316 315 313 312 311 309 307 307 309 311 313 315 315 313 307 304 306 300 302
294 302 298 298 303 298 296 310 307 311 316 320 318 317 315 314 312 309 308 312 314 316 315 315 312 313 305 305 305 301 305 302
291 290 289 290 287 287 293 302 307 306 313 315 311 310 311 311 312 315 316 315 316 314 314 315 315 315 318 310 309 301 302 307
282 278 275 275 276 279 291 299 294 301 314 309 309 313 314 315 318 317 317 318 318 318 315 315 314 313 305 297 303 299 305 308
270 268 273 264 268 287 294 293 300 313 308 312 317 318 318 320 320 320 320 320 318 315 314 312 311 308 314 308 303 303 304 305
271 273 267 272 281 286 292 305 313 310 314 319 320 321 320 320 319 318 318 317 315 315 315 313 310 302 306 306 306 303 303 309
274 271 274 281 286 290 306 311 308 314 318 319 319 319 319 319 318 319 318 317 317 316 313 312 306 309 304 300 303 303 308 312
270 273 281 286 290 311 310 306 312 316 318 318 318 319 320 321 321 321 320 317 315 315 312 307 302 301 297 300 304 311 313 313
272 279 281 292 313 303 305 309 313 316 317 318 319 320 322 322 322 322 320 318 316 316 313 304 303 301 304 308 314 315 317 319
278 283 296 307 304 306 307 310 314 317 318 319 319 321 322 321 322 323 320 318 316 315 308 300 301 305 309 315 317 320 321 321
284 299 307 305 305 306 308 313 315 317 318 319 320 319 320 322 324 322 320 318 317 315 308 306 309 313 315 320 323 323 324 326
Height
3161 3162 3162 3162 3163 3162 3160 3160 3158 3152 3154 3157 3157 3160 3160 3159 3158 3156 3153 3149 3144 3143 3140 3137 3133 3129 3124 3119 3114 3111 3105 3100
3160 3160 3160 3160 3160 3159 3152 3158 3155 3157 3155 3154 3156 3158 3157 3156 3153 3150 3146 3145 3141 3137 3133 3129 3124 3119 3115 3109 3105 3101 3097 3092
3157 3156 3157 3158 3157 3157 3156 3157 3156 3155 3154 3154 3155 3155 3152 3151 3148 3146 3143 3139 3134 3130 3125 3120 3115 3110 3104 3098 3092 3087 3083 3078
3156 3156 3156 3156 3156 3156 3156 3156 3155 3153 3152 3152 3152 3151 3150 3147 3143 3139 3135 3131 3126 3120 3114 3108 3102 3096 3091 3086 3080 3075 3071 3068
3155 3155 3154 3155 3156 3155 3154 3153 3153 3153 3153 3152 3149 3146 3142 3138 3134 3130 3125 3120 3114 3108 3102 3097 3091 3085 3079 3073 3068 3064 3060 3055
3152 3153 3155 3155 3154 3154 3154 3152 3151 3150 3147 3144 3141 3138 3135 3130 3125 3120 3114 3109 3103 3097 3091 3085 3079 3074 3068 3063 3058 3054 3049 3046
3149 3151 3152 3153 3151 3152 3150 3148 3146 3143 3141 3139 3135 3131 3126 3121 3116 3110 3104 3099 3094 3087 3082 3076 3071 3065 3060 3054 3049 3045 3041 3036
3147 3148 3148 3147 3148 3147 3146 3144 3141 3138 3136 3132 3128 3123 3118 3113 3108 3102 3096 3091 3086 3080 3074 3068 3061 3055 3049 3044 3039 3035 3031 3027
3144 3144 3144 3143 3144 3142 3140 3138 3135 3133 3129 3125 3119 3114 3109 3104 3099 3093 3088 3081 3075 3069 3062 3056 3050 3045 3041 3036 3032 3026 3022 3018
3141 3141 3140 3140 3139 3137 3135 3132 3130 3127 3122 3117 3111 3106 3101 3095 3090 3085 3079 3072 3065 3058 3052 3046 3040 3034 3029 3025 3020 3016 3012 3008
3139 3139 3138 3137 3134 3132 3129 3127 3123 3118 3115 3110 3105 3100 3094 3087 3081 3075 3068 3062 3056 3049 3041 3034 3029 3024 3018 3014 3011 3008 3004 3001
3135 3134 3132 3131 3129 3127 3124 3121 3117 3113 3109 3104 3098 3090 3083 3077 3071 3065 3058 3051 3044 3037 3031 3025 3020 3016 3012 3008 3004 3001 2998 2994
3130 3129 3127 3125 3122 3121 3118 3113 3109 3104 3100 3094 3087 3080 3073 3067 3060 3053 3047 3041 3035 3028 3023 3018 3012 3008 3005 3001 2998 2995 2990 2986
3124 3122 3121 3119 3117 3113 3108 3104 3100 3096 3090 3083 3077 3071 3065 3060 3054 3048 3041 3033 3027 3021 3015 3009 3005 3001 2998 2995 2991 2987 2984 2978
3118 3116 3115 3113 3109 3104 3100 3097 3093 3087 3081 3075 3070 3064 3059 3053 3046 3038 3031 3024 3017 3012 3008 3002 2998 2994 2991 2988 2984 2981 2976 2970
3113 3111 3110 3106 3102 3097 3094 3090 3084 3079 3074 3069 3062 3056 3050 3044 3036 3029 3022 3015 3009 3004 3000 2995 2992 2988 2985 2981 2978 2973 2967 2962
3107 3106 3103 3099 3094 3092 3088 3083 3078 3072 3067 3060 3054 3048 3041 3033 3026 3020 3013 3007 3001 2997 2992 2989 2985 2982 2978 2974 2970 2966 2960 2954
3102 3099 3095 3092 3089 3085 3081 3076 3070 3064 3058 3052 3046 3039 3032 3025 3018 3011 3004 2999 2994 2990 2986 2983 2980 2976 2972 2968 2964 2959 2954 2947
3096 3092 3088 3085 3081 3077 3073 3067 3062 3057 3051 3045 3037 3031 3025 3017 3011 3004 2998 2993 2988 2984 2980 2977 2974 2970 2966 2962 2957 2953 2947 2941